Wetterdaten: aktuell Freitag, 30.09.2022 04:56
Datum Zeit Temp. A. Pool Temp. Temp. 5cm Feuchte A. Luftdruck Regen Wind Richtung Richtung Sonnenschein ET UV Solar Taupunkt Windchill Windben Empfang
30.09.2022 04:56 9,1 C 13,3 C 9,4 C 97 % 1006,3 hPa 0,0 l/m 3,0 km/h (1 Bft) W 268 0 min 0,000 mm 0,0 UV-I 0 W/m 8,6 C 9,1 C 4,8 km/h (1 Bft) 100,00 %
30.09.2022 04:54 9,1 C 13,3 C 9,4 C 97 % 1006,3 hPa 0,0 l/m 2,9 km/h (1 Bft) W 265 0 min 0,000 mm 0,0 UV-I 0 W/m 8,6 C 9,1 C 4,8 km/h (1 Bft) 95,45 %
30.09.2022 04:52 9,1 C 13,3 C 9,4 C 97 % 1006,2 hPa 0,0 l/m 1,6 km/h (1 Bft) W 275 0 min 0,000 mm 0,0 UV-I 0 W/m 8,6 C 9,1 C 3,2 km/h (1 Bft) 100,00 %
30.09.2022 04:50 9,1 C 13,3 C 9,4 C 97 % 1006,2 hPa 0,0 l/m 3,1 km/h (1 Bft) W 275 0 min 0,000 mm 0,0 UV-I 0 W/m 8,6 C 9,1 C 4,8 km/h (1 Bft) 100,00 %
30.09.2022 04:48 9,2 C 13,3 C 9,4 C 97 % 1006,2 hPa 0,0 l/m 2,6 km/h (1 Bft) W-NW 300 0 min 0,000 mm 0,0 UV-I 0 W/m 8,7 C 9,2 C 4,8 km/h (1 Bft) 100,00 %
30.09.2022 04:46 9,1 C 13,3 C 9,4 C 97 % 1006,3 hPa 0,0 l/m 2,9 km/h (1 Bft) W 269 0 min 0,000 mm 0,0 UV-I 0 W/m 8,6 C 9,1 C 4,8 km/h (1 Bft) 100,00 %
30.09.2022 04:44 9,1 C 13,3 C 9,4 C 97 % 1006,2 hPa 0,0 l/m 1,8 km/h (1 Bft) W 271 0 min 0,000 mm 0,0 UV-I 0 W/m 8,6 C 9,1 C 4,8 km/h (1 Bft) 100,00 %
30.09.2022 04:42 9,1 C 13,3 C 9,4 C 97 % 1006,2 hPa 0,0 l/m 2,7 km/h (1 Bft) W-NW 301 0 min 0,000 mm 0,0 UV-I 0 W/m 8,6 C 9,1 C 4,8 km/h (1 Bft) 97,87 %
30.09.2022 04:40 9,1 C 13,3 C 9,4 C 97 % 1006,2 hPa 0,0 l/m 2,6 km/h (1 Bft) W-NW 297 0 min 0,000 mm 0,0 UV-I 0 W/m 8,6 C 9,1 C 4,8 km/h (1 Bft) 100,00 %
30.09.2022 04:38 9,1 C 13,3 C 9,4 C 97 % 1006,1 hPa 0,0 l/m 3,3 km/h (1 Bft) W-NW 300 0 min 0,000 mm 0,0 UV-I 0 W/m 8,6 C 9,1 C 4,8 km/h (1 Bft) 100,00 %
30.09.2022 04:36 9,1 C 13,3 C 9,4 C 97 % 1006,0 hPa 0,0 l/m 4,5 km/h (1 Bft) W 261 0 min 0,000 mm 0,0 UV-I 0 W/m 8,6 C 9,1 C 6,4 km/h (2 Bft) 100,00 %
30.09.2022 04:34 9,1 C 13,3 C 9,4 C 97 % 1006,0 hPa 0,0 l/m 3,4 km/h (1 Bft) W-NW 289 0 min 0,000 mm 0,0 UV-I 0 W/m 8,6 C 9,1 C 6,4 km/h (2 Bft) 100,00 %
30.09.2022 04:32 9,1 C 13,3 C 9,4 C 97 % 1006,0 hPa 0,0 l/m 3,2 km/h (1 Bft) W-NW 286 0 min 0,000 mm 0,0 UV-I 0 W/m 8,6 C 9,1 C 4,8 km/h (1 Bft) 97,37 %
30.09.2022 04:30 9,1 C 13,3 C 9,4 C 97 % 1005,9 hPa 0,0 l/m 6,3 km/h (2 Bft) W 259 0 min 0,000 mm 0,0 UV-I 0 W/m 8,6 C 9,1 C 9,7 km/h (2 Bft) 100,00 %
30.09.2022 04:28 9,2 C 13,3 C 9,4 C 97 % 1005,9 hPa 0,0 l/m 3,7 km/h (1 Bft) NW 309 0 min 0,000 mm 0,0 UV-I 0 W/m 8,7 C 9,2 C 9,7 km/h (2 Bft) 100,00 %
30.09.2022 04:26 9,2 C 13,3 C 9,4 C 97 % 1006,0 hPa 0,0 l/m 4,4 km/h (1 Bft) W-SW 252 0 min 0,000 mm 0,0 UV-I 0 W/m 8,7 C 9,2 C 9,7 km/h (2 Bft) 98,21 %
30.09.2022 04:24 9,2 C 13,3 C 9,4 C 97 % 1006,0 hPa 0,0 l/m 4,4 km/h (1 Bft) SW 231 0 min 0,000 mm 0,0 UV-I 0 W/m 8,7 C 9,2 C 8,0 km/h (2 Bft) 100,00 %
30.09.2022 04:22 9,2 C 13,3 C 9,4 C 97 % 1006,0 hPa 0,0 l/m 3,1 km/h (1 Bft) W-NW 286 0 min 0,000 mm 0,0 UV-I 0 W/m 8,7 C 9,2 C 4,8 km/h (1 Bft) 100,00 %
30.09.2022 04:20 9,2 C 13,3 C 9,4 C 97 % 1006,0 hPa 0,0 l/m 3,7 km/h (1 Bft) W-NW 292 0 min 0,000 mm 0,0 UV-I 0 W/m 8,7 C 9,2 C 4,8 km/h (1 Bft) 100,00 %
30.09.2022 04:18 9,2 C 13,3 C 9,4 C 97 % 1006,0 hPa 0,0 l/m 5,2 km/h (1 Bft) W 261 0 min 0,000 mm 0,0 UV-I 0 W/m 8,7 C 9,2 C 9,7 km/h (2 Bft) 98,00 %
30.09.2022 04:16 9,3 C 13,3 C 9,4 C 97 % 1006,0 hPa 0,0 l/m 5,4 km/h (1 Bft) W 259 0 min 0,000 mm 0,0 UV-I 0 W/m 8,8 C 9,3 C 11,3 km/h (2 Bft) 94,00 %
30.09.2022 04:14 9,3 C 13,3 C 9,4 C 97 % 1006,0 hPa 0,0 l/m 4,3 km/h (1 Bft) NW 304 0 min 0,000 mm 0,0 UV-I 0 W/m 8,8 C 9,3 C 8,0 km/h (2 Bft) 91,49 %
30.09.2022 04:12 9,3 C 13,3 C 9,4 C 97 % 1006,0 hPa 0,0 l/m 1,5 km/h (1 Bft) W 267 0 min 0,000 mm 0,0 UV-I 0 W/m 8,8 C 9,3 C 3,2 km/h (1 Bft) 93,62 %
30.09.2022 04:10 9,3 C 13,3 C 9,4 C 97 % 1006,0 hPa 0,0 l/m 3,6 km/h (1 Bft) W 259 0 min 0,000 mm 0,0 UV-I 0 W/m 8,8 C 9,3 C 6,4 km/h (2 Bft) 97,56 %
30.09.2022 04:08 9,3 C 13,3 C 9,4 C 97 % 1006,0 hPa 0,0 l/m 3,2 km/h (1 Bft) W-NW 286 0 min 0,000 mm 0,0 UV-I 0 W/m 8,8 C 9,3 C 4,8 km/h (1 Bft) 97,87 %
30.09.2022 04:06 9,3 C 13,3 C 9,4 C 97 % 1006,0 hPa 0,0 l/m 3,3 km/h (1 Bft) W 275 0 min 0,000 mm 0,0 UV-I 0 W/m 8,8 C 9,3 C 4,8 km/h (1 Bft) 97,87 %
30.09.2022 04:04 9,3 C 13,3 C 9,4 C 97 % 1006,0 hPa 0,0 l/m 1,0 km/h (0 Bft) W 281 0 min 0,000 mm 0,0 UV-I 0 W/m 8,8 C 9,3 C 4,8 km/h (1 Bft) 97,87 %
30.09.2022 04:02 9,3 C 13,3 C 9,4 C 97 % 1006,0 hPa 0,0 l/m 1,8 km/h (1 Bft) W 276 0 min 0,000 mm 0,0 UV-I 0 W/m 8,8 C 9,3 C 3,2 km/h (1 Bft) 100,00 %
30.09.2022 04:00 9,3 C 13,3 C 9,4 C 97 % 1006,0 hPa 0,0 l/m 1,7 km/h (1 Bft) W 275 0 min 0,000 mm 0,0 UV-I 0 W/m 8,8 C 9,3 C 3,2 km/h (1 Bft) 95,74 %
30.09.2022 03:58 9,3 C 13,3 C 9,4 C 97 % 1006,0 hPa 0,0 l/m 1,2 km/h (1 Bft) W 275 0 min 0,000 mm 0,0 UV-I 0 W/m 8,8 C 9,3 C 3,2 km/h (1 Bft) 92,00 %
30.09.2022 03:56 9,3 C 13,3 C 9,4 C 97 % 1006,1 hPa 0,0 l/m 0,4 km/h (0 Bft) W 275 0 min 0,000 mm 0,0 UV-I 0 W/m 8,8 C 9,3 C 1,6 km/h (1 Bft) 95,45 %
_ Min-Zeit 04:28 00:00 00:14 00:00 00:00 - 00:08 - - - - - - 04:30 04:30 00:08 01:58
Minimum _ 9,1 C 13,3 C 9,4 C 96 % 1004,9 hPa - 0,0 km/h (0 Bft) - - - - - - 8,6 C 9,1 C 0,0 km/h (0 Bft) 91,49 %
_ Max-Zeit 00:00 00:00 00:00 00:34 04:46 00:12 04:30 - - 00:00 00:00 00:00 00:00 00:46 00:00 04:16 00:14
Maximum _ 9,8 C 13,3 C 10,0 C 97 % 1006,3 hPa 0,2 l/m 6,3 km/h
W (2 Bft)
- - 0 min 0,000 mm 0,0 UV-I 0 W/m 9,3 C 9,8 C 11,3 km/h
W-SW (2 Bft)
100,00 %
Durchschnitt _ 9,4 C 13,3 C 9,5 C 97 % 1005,6 hPa #1,2 l/m 1,0 km/h (0 Bft) W - #0 min. #0,000 mm 0,0 UV-I 0 W/m 9,0 C 9,4 C 2,3 km/h (1 Bft) 97,63 %